This is the latest recevied weather packets stored in our database for station/object NA9VY-8. If no packets are shown the sender has not sent any weather packets the latest 10 day(s).
| Time | Temp. | Humidity | Pressure | Rain* | Wind** | Luminosity | Snow |
|---|---|---|---|---|---|---|---|
| 1777528375 | 7.78° C | 79% | 1021.4 hPa | 0 mm | - | 0 W/m² | - |
| 1777528073 | 7.78° C | 79% | 1021.2 hPa | 0 mm | - | 0 W/m² | - |
| 1777527769 | 7.78° C | 78% | 1021.1 hPa | 0 mm | - | 0 W/m² | - |
| 1777527465 | 8.33° C | 77% | 1021.1 hPa | 0 mm | - | 0 W/m² | - |
| 1777527159 | 8.33° C | 76% | 1021.1 hPa | 0 mm | - | 0 W/m² | - |
| 1777526857 | 8.33° C | 77% | 1021.2 hPa | 0 mm | - | 0 W/m² | - |
| 1777526557 | 8.33° C | 77% | 1021 hPa | 0 mm | - | 0 W/m² | - |
| 1777526252 | 8.33° C | 79% | 1021.1 hPa | 0 mm | - | 0 W/m² | - |
| 1777525948 | 8.33° C | 80% | 1021 hPa | 0 mm | - | 0 W/m² | - |
| 1777525646 | 8.33° C | 77% | 1020.8 hPa | 0 mm | - | 0 W/m² | - |
| 1777525343 | 8.89° C | 78% | 1020.9 hPa | 0 mm | - | 0 W/m² | - |
| 1777525038 | 8.89° C | 73% | 1020.9 hPa | 0 mm | - | 0 W/m² | - |
| 1777524735 | 8.89° C | 73% | 1020.8 hPa | 0 mm | - | 0 W/m² | - |
| 1777524434 | 9.44° C | 72% | 1020.7 hPa | 0 mm | - | 0 W/m² | - |
| 1777524129 | 9.44° C | 72% | 1020.7 hPa | 0 mm | - | 0 W/m² | - |
| 1777523826 | 9.44° C | 72% | 1020.6 hPa | 0 mm | - | 0 W/m² | - |
| 1777523523 | 9.44° C | 72% | 1020.5 hPa | 0 mm | - | 0 W/m² | - |
| 1777523219 | 9.44° C | 73% | 1020.5 hPa | 0 mm | - | 0 W/m² | - |
| 1777522915 | 9.44° C | 73% | 1020.6 hPa | 0 mm | - | 0 W/m² | - |
| 1777522612 | 10° C | 73% | 1020.4 hPa | 0 mm | - | 0 W/m² | - |
| 1777522309 | 10° C | 73% | 1020.3 hPa | 0 mm | - | 0 W/m² | - |
| 1777522006 | 10° C | 74% | 1020.4 hPa | 0 mm | - | 0 W/m² | - |
| 1777521702 | 10° C | 73% | 1020.2 hPa | 0 mm | - | 0 W/m² | - |
| 1777521399 | 10° C | 72% | 1020.2 hPa | 0 mm | - | 0 W/m² | - |
| 1777521096 | 10° C | 73% | 1020 hPa | 0 mm | - | 0 W/m² | - |
* Rain latest hour (hover to see other rain measurements)
** Current wind speed in m/s (hover to see current wind gust speed)